This demonstration page uses our WeatherBlox Daily Observations layout. Learn more.

Left ArrowRight Arrow

40.97296, -117.73568

Hourly Observations for September 2, 2016

Temp ( °F °C ) Dew Point ( °F °C ) Humidity (%) Winds ( mph kmh ) Pressure ( in mb ) Visibility ( mi km ) Precip ( " mm )
12:56 am 00:56 Clear 63 17.2 25 -3.9 24 24 WSW 5 7 29.86 1011 10 16 0.00 0.00
1:56 am 01:56 Clear 60 15.6 26 -3.3 27 27 Calm 29.86 1011 10 16 0.00 0.00
2:56 am 02:56 Clear 50 10 24 -4.4 36 36 WNW 8 13 29.87 1012 10 16 0.00 0.00
3:56 am 03:56 Clear 48 8.9 25 -3.9 41 41 N 5 7 29.87 1012 10 16 0.00 0.00
4:56 am 04:56 Clear 46 7.8 24 -4.4 42 42 NE 3 6 29.88 1012 10 16 0.00 0.00
5:56 am 05:56 Clear 45 7.2 24 -4.4 44 44 W 3 6 29.88 1012 10 16 0.00 0.00
6:56 am 06:56 Sunny 45 7.2 25 -3.9 46 46 SE 7 11 29.91 1013 10 16 0.00 0.00
7:56 am 07:56 Sunny 53 11.7 24 -4.4 32 32 WNW 3 6 29.92 1013 10 16 0.00 0.00
8:56 am 08:56 Sunny 64 17.8 24 -4.4 22 22 Calm 29.91 1013 10 16 0.00 0.00
9:56 am 09:56 Sunny 71 21.7 29 -1.7 21 21 VRB 5 7 29.89 1012 10 16 0.00 0.00
10:56 am 10:56 Sunny 76 24.4 29 -1.7 18 18 WSW 9 15 29.88 1012 10 16 0.00 0.00
11:56 am 11:56 Sunny 75 23.9 31 -0.6 20 20 W 12 19 29.86 1011 10 16 0.00 0.00
12:56 pm 12:56 Sunny 78 25.6 33 0.6 19 19 VRB 5 7 29.83 1010 10 16 0.00 0.00
1:56 pm 13:56 Sunny 78 25.6 32 0 19 19 WSW 3 6 29.82 1010 10 16 0.00 0.00
2:56 pm 14:56 Sunny 80 26.7 32 0 17 17 W 13 20 29.83 1010 10 16 0.00 0.00
3:56 pm 15:56 Sunny 81 27.2 32 0 17 17 W 13 20 29.81 1009 10 16 0.00 0.00
4:56 pm 16:56 Sunny 80 26.7 32 0 17 17 WNW 12 19 29.80 1009 10 16 0.00 0.00
5:56 pm 17:56 Sunny 79 26.1 33 0.6 19 19 WNW 9 15 29.80 1009 10 16 0.00 0.00
6:56 pm 18:56 Sunny 75 23.9 32 0 21 21 NW 7 11 29.80 1009 10 16 0.00 0.00
7:56 pm 19:56 Clear 69 20.6 32 0 25 25 NNW 9 15 29.80 1009 10 16 0.00 0.00
8:56 pm 20:56 Clear 66 18.9 35 1.7 32 32 NNW 9 15 29.80 1009 10 16 0.00 0.00
9:56 pm 21:56 Clear 63 17.2 36 2.2 37 37 NNW 10 17 29.80 1009 10 16 0.00 0.00
10:56 pm 22:56 Clear 61 16.1 35 1.7 38 38 NNW 5 7 29.80 1009 10 16 0.00 0.00
11:56 pm 23:56 Clear 62 16.7 36 2.2 38 38 N 10 17 29.82 1010 10 16 0.00 0.00

Powered by AerisWeather